Location: Unspecified
(0.0000°N, 0.0000°E)
Time: 06:28:53
(UTC+00:00)

Freja - Pass Details

Date: 04 June 2024
Orbit: 548 x 1731 km, 63.0° (Epoch: 13 June)

Event Time Altitude Azimuth Distance (km) Brightness Sun altitude
Rises 19:34:43 0° 305° (NW) 2,716 9.8 -22.1°
Reaches altitude 10° 19:37:38 10° 281° (W) 1,811 8.5 -22.8°
Maximum altitude 19:39:59 15° 244° (WSW) 1,529 7.5 -23.3°
Drops below altitude 10° 19:42:26 10° 207° (SSW) 1,895 7.6 -23.9°
Enters shadow 19:42:57 - 202° (SSW) 2,036 7.7 -24.0°
